Location: Calvera
(42.3882°N, 0.6137°E)
Time: 14:38:48
(UTC+00:00)

Meteor 1-31 Rocket - Pass Details

Date: 28 October 2020
Orbit: 521 x 546 km, 97.6° (Epoch: 25 November)

Event Time Altitude Azimuth Distance (km) Brightness Sun altitude
Rises 04:17:35 0° 21° (NNE) 2,723 6.7 -24.3°
Reaches altitude 10° 04:19:51 10° 29° (NNE) 1,825 5.9 -23.9°
Maximum altitude 04:23:31 36° 98° (E) 871 4.3 -23.2°
Drops below altitude 10° 04:27:08 10° 166° (SSE) 1,805 5.6 -22.5°
Sets 04:29:22 0° 175° (S) 2,690 6.4 -22.1°
